This demonstration page uses our WeatherBlox Daily Observations layout. Learn more.

Left ArrowRight Arrow

39.29038, -76.61219

Hourly Observations for May 22, 2022

Temp ( °F °C ) Dew Point ( °F °C ) Humidity (%) Winds ( mph kmh ) Pressure ( in mb ) Visibility ( mi km ) Precip ( " mm )
12:54 am 00:54 Mostly Cloudy 82 27.8 67 19.4 60 60 SW 9 15 30.04 1017 10 16 0.00 0.00
1:54 am 01:54 Mostly Cloudy 79 26.1 67 19.4 67 67 W 7 11 30.01 1016 10 16 0.00 0.00
2:54 am 02:54 Mostly Cloudy 80 26.7 68 20 67 67 S 5 7 30.01 1016 10 16 0.00 0.00
3:54 am 03:54 Mostly Cloudy 79 26.1 68 20 69 69 S 5 7 30.01 1016 10 16 0.00 0.00
4:54 am 04:54 Mostly Cloudy 78 25.6 67 19.4 69 69 SW 7 11 30.01 1016 10 16 0.00 0.00
5:54 am 05:54 Mostly Cloudy 76 24.4 67 19.4 74 74 SSW 6 9 30.01 1016 10 16 0.00 0.00
6:54 am 06:54 Mostly Cloudy 76 24.4 67 19.4 74 74 SSW 3 6 30.04 1017 10 16 0.00 0.00
7:54 am 07:54 Mostly Cloudy 76 24.4 66 18.9 72 72 SSW 7 11 30.05 1018 10 16 0.00 0.00
8:54 am 08:54 Mostly Cloudy 76 24.4 66 18.9 72 72 SW 7 11 30.05 1018 10 16 0.00 0.00
9:54 am 09:54 Mostly Cloudy 78 25.6 67 19.4 69 69 SW 8 13 30.06 1018 10 16 0.00 0.00
10:54 am 10:54 Partly Cloudy 82 27.8 67 19.4 60 60 Calm 30.04 1017 10 16 0.00 0.00
11:54 am 11:54 Partly Cloudy 85 29.4 69 20.6 59 59 SW 9 15 30.04 1017 10 16 0.00 0.00
12:54 pm 12:54 Partly Cloudy 88 31.1 67 19.4 50 50 Calm 30.02 1017 10 16 0.00 0.00
1:54 pm 13:54 Partly Cloudy 89 31.7 68 20 50 50 W 8 13 29.99 1016 10 16 0.00 0.00
2:54 pm 14:54 Partly Cloudy 91 32.8 67 19.4 45 45 VRB 5 7 29.97 1015 10 16 0.00 0.00
3:54 pm 15:54 Partly Cloudy 92 33.3 68 20 46 46 S 7 11 29.95 1014 10 16 0.00 0.00
4:54 pm 16:54 Mostly Cloudy 89 31.7 67 19.4 48 48 SW 7 11 29.94 1014 10 16 0.00 0.00
5:17 pm 17:17 Mostly Cloudy with Thunderstorms 88 31.1 68 20 52 52 SW 6 9 29.94 1014 10 16 0.00 0.00
5:42 pm 17:42 Cloudy with Strong Thunderstorms 71 21.7 64 17.8 79 79 SW 17 28 30.00 1016 1 1 0.04 1.02
5:51 pm 17:51 Cloudy with Strong Thunderstorms 70 21 64 18 83 83 SE 10 17 29.99 1015 1 1 0.42 10.67
5:54 pm 17:54 Mostly Cloudy with Thunderstorms 70 21.1 65 18.3 84 84 SE 10 17 29.97 1015 1 2 0.44 11.18
6:03 pm 18:03 Mostly Cloudy with Thunderstorms 70 21.1 66 18.9 87 87 SSE 10 17 29.97 1015 7 11 0.01 0.25
6:28 pm 18:28 Mostly Cloudy 73 22.8 67 19.4 81 81 S 6 9 29.97 1015 10 16 0.01 0.25
6:54 pm 18:54 Mostly Cloudy 74 23.3 68 20 82 82 VRB 5 7 29.99 1016 10 16 0.01 0.25
7:54 pm 19:54 Mostly Cloudy 74 23.3 68 20 82 82 ENE 8 13 29.99 1016 10 16 0.00 0.00
8:16 pm 20:16 Mostly Cloudy with Thunderstorms 74 23.3 67 19.4 79 79 WNW 5 7 30.03 1017 10 16 0.00 0.00
8:54 pm 20:54 Cloudy with Thunderstorms 71 21.7 69 20.6 94 94 W 12 19 30.07 1018 3 5 0.09 2.29
9:03 pm 21:03 Cloudy with Strong Thunderstorms 72 22.2 69 20.6 91 91 WSW 8 13 30.08 1019 2 3 0.10 2.54
9:15 pm 21:15 Cloudy with Thunderstorms 72 22.2 69 20.6 91 91 SW 7 11 30.08 1019 4 6 0.16 4.06
9:54 pm 21:54 Cloudy with Thunderstorms 71 21.7 69 20.6 94 94 Calm 30.09 1019 3 4 0.27 6.86
10:13 pm 22:13 Cloudy with Light Rain 72 22.2 69 20.6 91 91 NNW 6 9 30.08 1019 5 8 0.07 1.78
10:54 pm 22:54 Cloudy 72 22.2 69 20.6 91 91 NNW 5 7 30.06 1018 10 16 0.10 2.54
11:54 pm 23:54 Partly Cloudy 71 21.7 68 20 90 90 W 5 7 30.09 1019 10 16 0.00 0.00

Powered by AerisWeather